Regional Weather Roundup
Issued by NWS Raleigh/Durham, NC

Home | Current Version | Previous Version | Text Only | Print | Product List | Glossary On
Versions: 1 2 3 4 5 6 7 8 9 10 11 12 13 14 15 16 17 18 19 20 21 22 23 24 25 26 27 28 29 30 31 32 33 34 35 36 37 38 39 40 41 42 43 44 45 46 47 48 49 50
000
ASUS42 KRAH 031410
RWRRAH
NORTH CAROLINA WEATHER ROUNDUP
NATIONAL WEATHER SERVICE RALEIGH NC
900 AM EST TUE MAR 03 2015

NOTE: "FAIR" INDICATES FEW OR NO CLOUDS BELOW 12,000 FEET WITH NO
SIGNIFICANT WEATHER AND/OR OBSTRUCTIONS TO VISIBILITY.

NCZ001-053-055-056-065-067-031500-
WESTERN NORTH CAROLINA

CITY           SKY/WX    TMP DP  RH WIND       PRES   REMARKS
ASHEVILLE      CLOUDY    42  33  70 S7        30.28S
JEFFERSON      CLOUDY    35  22  57 S5        30.25R WCI  31
MORGANTON      CLOUDY    41  37  87 CALM      30.37R
HICKORY        NOT AVBL
RUTHERFORDTON  CLOUDY    44  29  56 E3        30.32S
MOUNT AIRY     CLOUDY    38  33  81 E6        30.36S WCI  34
BOONE          LGT RAIN  35  34  99 CALM      30.27R
$$

NCZ021-022-025-041-071-084-088-031500-
CENTRAL NORTH CAROLINA

CITY           SKY/WX    TMP DP  RH WIND       PRES   REMARKS
CHARLOTTE      CLOUDY    42  38  85 E8        30.34R FOG
GREENSBORO     CLOUDY    39  26  59 SE8       30.35R WCI  33
WINSTON-SALEM  CLOUDY    39  27  62 E6        30.35S WCI  35
RALEIGH-DURHAM CLOUDY    37  20  50 E7G18     30.41R WCI  32
FORT BRAGG     CLOUDY    40  22  47 E12       30.38S WCI  33
FAYETTEVILLE   CLOUDY    40  24  53 NE6       30.38R
BURLINGTON     CLOUDY    40  21  46 E7        30.38R
LAURINBURG     LGT RAIN  40  28  62 E10       30.38R WCI  33
$$

NCZ011-015-027-028-043-044-047-080-103-031500-
NORTHEASTERN NORTH CAROLINA

CITY           SKY/WX    TMP DP  RH WIND       PRES   REMARKS
ROCKY MT-WILSO CLOUDY    36  21  54 NE6       30.43R WCI  31
GREENVILLE     CLOUDY    36  25  64 CALM      30.42S
WASHINGTON     CLOUDY    35  26  68 NE6       30.41F WCI  30
ELIZABETH CITY SUNNY     37  27  67 NE5       30.44R WCI  33
MANTEO         PTSUNNY   39  30  70 N13       30.43S WCI  32
CAPE HATTERAS  CLOUDY    41  34  76 NE12G17   30.39R
$$

NCZ078-087-090-091-093-098-101-031500-
SOUTHEASTERN NORTH CAROLINA

CITY           SKY/WX    TMP DP  RH WIND       PRES   REMARKS
LUMBERTON      CLOUDY    42  25  50 NE7       30.37R
GOLDSBORO      CLOUDY    38  28  67 NE7       30.40R WCI  33
KINSTON        PTSUNNY   39  21  48 NE8       30.42R WCI  34
KENANSVILLE    CLOUDY    39  22  49 NE5       30.41S
NEW BERN       CLOUDY    40  26  57 E9        30.39F WCI  34
CHERRY POINT   CLOUDY    41  28  60 NE12      30.39F
BEAUFORT       CLOUDY    41  30  65 NE12G18   30.39R
JACKSONVILLE   NOT AVBL
WILMINGTON     CLOUDY    42  28  57 NE9       30.35F
$$



USA.gov is the U.S. government's official web portal to all federal, state and local government web resources and services.